Location: Stara Lesna
(49.1528°N, 20.2911°E)
Time: 07:43:07
(UTC+02:00)

Meteor 1-27 Rocket - Pass Details

Date: 21 September 2019
Orbit: 829 x 911 km, 81.3° (Epoch: 18 October)

Event Time Altitude Azimuth Distance (km) Brightness Sun altitude
Exits shadow 04:21:34 - 179° (S) 3,065 6.4 -20.0°
Reaches altitude 10° 04:22:53 10° 178° (S) 2,567 6.0 -19.8°
Maximum altitude 04:28:40 66° 97° (E) 966 4.1 -18.9°
Drops below altitude 10° 04:34:23 10° 17° (NNE) 2,534 6.7 -18.1°
Sets 04:36:49 0° 15° (NNE) 3,463 7.4 -17.7°
